HST

Last updated on Tue Jan 14 2025 00:02:10 GMT+0000 (Coordinated Universal Time)

1 20580U 90037B 25013.30549370 .00008323 00000+0 34160-3 0 9998 2 20580 28.4699 12.6663 0002681 176.5476 183.5136 15.22385288709032
UTC large
Height (km)
Speed (km/s)
/
Latitude / Longitude
Inclination (degrees)
Orbital Period (minutes)
Azimuth
Elevation
Range (km)
Doppler Factor

Next 0 passes for location: London (51.5072 / 0.1276)

Sorry there are no passes over London.